Zurück zum Katalog

FLOCK 4BE 3

AktivWissenschaftSSO
NORAD 60561·PAYLOAD·🇺🇸 United States

Gestartet Aug 16, 2024 von Vandenberg Space Force Base

Loading…

Nächste Überflüge (nächste 24 Stunden)

TLE

AktuellSource: CelesTrak SupGP

Epoche: Sep 14, 2026, 14:44 UTC

1 60561C 24149AJ  26257.61416667  .00046956  00000+0  10115-2 0  2573
2 60561  97.3641 342.5328 0002607 333.2622 214.3958 15.44594301    12

Verfolge FLOCK 4BE 3 in Echtzeit mit AllMySat

Download on the App Store